Eveleth, MN

10:17 AM CST on February 06, 2016 (GMT -0600)
Eveleth-Virginia Municipal

Weather History for KEVM - February, 2013

Change the Weather History Date:

Friday, February 22, 2013

  Actual Average Record
Temperature  
Mean Temperature 24 °F -  
Max Temperature 32 °F 26 °F 46 °F (1998)
Min Temperature 17 °F 6 °F -20 °F (1989)
Degree Days  
Heating Degree Days 40    
Moisture  
Dew Point 21 °F    
Average Humidity 86    
Maximum Humidity 93    
Minimum Humidity 64    
Precipitation  
Precipitation 0.00 in - - ()
Sea Level Pressure  
Sea Level Pressure 29.95 in    
Wind  
Wind Speed 6 mph (NE)    
Max Wind Speed 12 mph    
Max Gust Speed 20 mph    
Visibility 8 miles    
Events Snow    
Averages and records for this station are not official NWS values.
T = Trace of Precipitation, MM = Missing Value Source: NWS Daily Summary

Daily Weather History Graph

Daily Weather History Graph

Search for Another Location

Airport or City:

Trip Planner

Search our weather history database for the weather conditions in past years. The results will help you decide how hot, cold, wet, or windy it might be!

Date:

Astronomy

Feb. 22, 2013 Rise Set
Actual Time 7:02 AM CST 5:44 PM CST
Civil Twilight 6:31 AM CST 6:16 PM CST
Nautical Twilight 5:56 AM CST 6:51 PM CST
Astronomical Twilight 5:20 AM CST 7:27 PM CST
Moon 2:49 PM CST (2/22) 4:57 AM CST (2/22)
Length of Visible Light 11h 44m
Length of Day
10h 42m
Waxing Gibbous, 90% of the Moon is Illuminated
Feb 22
Waxing Gibbous
Feb 25
Full
Mar 4
Last Quarter
Mar 11
New
Mar 19
First Quarter

Hourly Weather History & Observations

Time (CST) Temp. Windchill Dew Point Humidity Pressure Visibility Wind Dir Wind Speed Gust Speed Precip Events Conditions
12:10 AM 19.4 °F 10.4 °F 17.6 °F 93% 30.16 in 7.0 mi ENE 6.9 mph - N/A   Overcast
12:29 AM 21.2 °F 13.6 °F 19.4 °F 93% 30.16 in 7.0 mi ENE 5.8 mph - N/A   Overcast
12:49 AM 21.2 °F 14.9 °F 19.4 °F 93% 30.15 in 5.0 mi NE 4.6 mph - N/A   Overcast
1:10 AM 21.2 °F 13.6 °F 19.4 °F 93% 30.14 in 7.0 mi NE 5.8 mph - N/A   Overcast
1:29 AM 21.2 °F 14.9 °F 19.4 °F 93% 30.14 in 10.0 mi NE 4.6 mph - N/A   Overcast
1:49 AM 21.2 °F 13.6 °F 19.4 °F 93% 30.14 in 10.0 mi ENE 5.8 mph - N/A   Overcast
2:10 AM 21.2 °F 13.6 °F 19.4 °F 93% 30.13 in 7.0 mi NE 5.8 mph - N/A   Overcast
2:29 AM 21.2 °F 13.6 °F 19.4 °F 93% 30.12 in 7.0 mi ENE 5.8 mph - N/A   Overcast
2:49 AM 21.2 °F 13.6 °F 19.4 °F 93% 30.10 in 7.0 mi NE 5.8 mph - N/A   Overcast
3:10 AM 19.4 °F 10.4 °F 17.6 °F 93% 30.09 in 7.0 mi NNE 6.9 mph - N/A   Overcast
3:29 AM 19.4 °F 11.5 °F 17.6 °F 93% 30.08 in 3.0 mi NE 5.8 mph - N/A   Overcast
3:49 AM 19.4 °F 10.4 °F 17.6 °F 93% 30.06 in 3.0 mi NE 6.9 mph - N/A   Overcast
4:10 AM 17.6 °F 7.3 °F 15.8 °F 93% 30.06 in 4.0 mi NE 8.1 mph - N/A   Overcast
4:29 AM 17.6 °F 9.3 °F 15.8 °F 93% 30.05 in 5.0 mi NE 5.8 mph - N/A   Overcast
4:49 AM 17.6 °F 8.2 °F 15.8 °F 93% 30.05 in 7.0 mi NE 6.9 mph - N/A   Overcast
5:10 AM 19.4 °F 10.4 °F 17.6 °F 93% 30.03 in 10.0 mi NE 6.9 mph - N/A   Overcast
5:29 AM 19.4 °F 10.4 °F 17.6 °F 93% 30.03 in 10.0 mi NE 6.9 mph - N/A   Overcast
5:49 AM 19.4 °F 11.5 °F 17.6 °F 93% 30.02 in 10.0 mi NE 5.8 mph - N/A   Overcast
6:10 AM 19.4 °F 10.4 °F 17.6 °F 93% 30.01 in 10.0 mi NE 6.9 mph - N/A   Overcast
6:29 AM 19.4 °F 10.4 °F 17.6 °F 93% 30.00 in 10.0 mi NE 6.9 mph - N/A   Overcast
6:49 AM 19.4 °F 11.5 °F 17.6 °F 93% 30.00 in 10.0 mi NE 5.8 mph - N/A   Overcast
7:29 AM 21.2 °F 10.9 °F 19.4 °F 93% 29.98 in 10.0 mi NE 9.2 mph - N/A   Overcast
7:50 AM 21.2 °F 12.6 °F 19.4 °F 93% 29.98 in 10.0 mi NE 6.9 mph - N/A   Overcast
8:09 AM 21.2 °F 14.9 °F 19.4 °F 93% 29.98 in 10.0 mi NE 4.6 mph - N/A   Overcast
8:29 AM 21.2 °F 13.6 °F 19.4 °F 93% 29.98 in 10.0 mi NE 5.8 mph - N/A   Overcast
8:50 AM 23.0 °F 15.8 °F 21.2 °F 93% 29.97 in 10.0 mi NE 5.8 mph - N/A   Overcast
9:09 AM 23.0 °F 14.7 °F 21.2 °F 93% 29.97 in 7.0 mi NE 6.9 mph - N/A   Overcast
9:29 AM 23.0 °F 15.8 °F 21.2 °F 93% 29.97 in 5.0 mi NE 5.8 mph - N/A   Overcast
9:49 AM 23.0 °F 14.7 °F 21.2 °F 93% 29.95 in 4.0 mi NNE 6.9 mph - N/A   Overcast
10:09 AM 23.0 °F 13.1 °F 21.2 °F 93% 29.95 in 10.0 mi NNE 9.2 mph - N/A   Overcast
10:30 AM 24.8 °F 17.9 °F 23.0 °F 93% 29.95 in 10.0 mi NE 5.8 mph - N/A   Overcast
10:49 AM 26.6 °F 19.1 °F 23.0 °F 86% 29.94 in 10.0 mi NNE 6.9 mph - N/A   Overcast
11:10 AM 26.6 °F 19.1 °F 23.0 °F 86% 29.93 in 10.0 mi NNE 6.9 mph - N/A   Overcast
11:29 AM 30.2 °F 24.3 °F 26.6 °F 86% 29.93 in 10.0 mi NE 5.8 mph 16.1 mph N/A   Overcast
11:49 AM 30.2 °F 21.3 °F 24.8 °F 80% 29.92 in 10.0 mi East 10.4 mph 16.1 mph N/A   Overcast
12:09 PM 30.2 °F 21.3 °F 23.0 °F 75% 29.92 in 10.0 mi East 10.4 mph 17.3 mph N/A   Overcast
12:29 PM 32.0 °F 24.2 °F 24.8 °F 75% 29.91 in 10.0 mi East 9.2 mph 19.6 mph N/A   Overcast
12:49 PM 32.0 °F 23.0 °F 24.8 °F 75% 29.91 in 10.0 mi East 11.5 mph 18.4 mph N/A   Overcast
1:10 PM 32.0 °F 24.2 °F 23.0 °F 69% 29.90 in 10.0 mi East 9.2 mph 18.4 mph N/A   Overcast
1:29 PM 32.0 °F 24.8 °F 23.0 °F 69% 29.90 in 10.0 mi East 8.1 mph - N/A   Overcast
1:49 PM 32.0 °F 23.6 °F 23.0 °F 69% 29.89 in 10.0 mi East 10.4 mph - N/A   Overcast
2:10 PM 32.0 °F 24.8 °F 21.2 °F 64% 29.88 in 10.0 mi East 8.1 mph - N/A   Overcast
2:29 PM 32.0 °F 24.2 °F 23.0 °F 69% 29.88 in 10.0 mi East 9.2 mph - N/A   Overcast
2:49 PM 32.0 °F 24.8 °F 23.0 °F 69% 29.88 in 10.0 mi East 8.1 mph - N/A   Overcast
3:09 PM 30.2 °F 21.3 °F 21.2 °F 69% 29.87 in 10.0 mi East 10.4 mph 16.1 mph N/A   Overcast
3:29 PM 30.2 °F 21.3 °F 23.0 °F 75% 29.87 in 10.0 mi ENE 10.4 mph - N/A   Overcast
3:49 PM 30.2 °F 23.4 °F 23.0 °F 75% 29.87 in 10.0 mi ENE 6.9 mph - N/A   Overcast
4:10 PM 30.2 °F 21.3 °F 23.0 °F 75% 29.87 in 10.0 mi ENE 10.4 mph - N/A   Overcast
4:29 PM 28.4 °F 19.7 °F 23.0 °F 80% 29.87 in 10.0 mi East 9.2 mph - N/A   Overcast
4:49 PM 28.4 °F 21.2 °F 23.0 °F 80% 29.86 in 10.0 mi ENE 6.9 mph - N/A   Overcast
5:10 PM 28.4 °F 22.2 °F 23.0 °F 80% 29.86 in 10.0 mi ENE 5.8 mph - N/A   Overcast
5:29 PM 28.4 °F 23.3 °F 23.0 °F 80% 29.87 in 5.0 mi ENE 4.6 mph - N/A Snow Light Snow
5:49 PM 28.4 °F 22.2 °F 23.0 °F 80% 29.87 in 10.0 mi NE 5.8 mph - N/A   Overcast
6:10 PM 28.4 °F 24.6 °F 23.0 °F 80% 29.87 in 10.0 mi NE 3.5 mph - N/A   Overcast
6:29 PM 28.4 °F 22.2 °F 23.0 °F 80% 29.87 in 5.0 mi ENE 5.8 mph - N/A   Overcast
6:49 PM 26.6 °F 22.6 °F 23.0 °F 86% 29.86 in 5.0 mi NE 3.5 mph - N/A   Overcast
7:09 PM 26.6 °F 22.6 °F 24.8 °F 93% 29.86 in 3.0 mi NE 3.5 mph - N/A   Overcast
7:29 PM 26.6 °F 22.6 °F 24.8 °F 93% 29.86 in 2.5 mi NE 3.5 mph - N/A   Overcast
7:50 PM 26.6 °F 21.2 °F 23.0 °F 86% 29.86 in 4.0 mi NNE 4.6 mph - N/A   Overcast
8:09 PM 26.6 °F 21.2 °F 23.0 °F 86% 29.87 in 10.0 mi NNE 4.6 mph - N/A Snow Light Snow
8:29 PM 24.8 °F 19.1 °F 21.2 °F 86% 29.86 in 5.0 mi NNE 4.6 mph - N/A Snow Light Snow
8:50 PM 24.8 °F 19.1 °F 21.2 °F 86% 29.86 in 7.0 mi NNE 4.6 mph - N/A   Overcast
9:09 PM 24.8 °F 19.1 °F 21.2 °F 86% 29.86 in 5.0 mi NE 4.6 mph - N/A Snow Light Snow
9:29 PM 24.8 °F 17.9 °F 21.2 °F 86% 29.85 in 4.0 mi NNE 5.8 mph - N/A Snow Light Snow
9:49 PM 24.8 °F 17.9 °F 21.2 °F 86% 29.85 in 3.0 mi NNE 5.8 mph - N/A Snow Light Snow
10:10 PM 23.0 °F 15.8 °F 21.2 °F 93% 29.84 in 3.0 mi NNE 5.8 mph - N/A Snow Light Snow
10:29 PM 23.0 °F 17.0 °F 21.2 °F 93% 29.84 in 5.0 mi NNE 4.6 mph - N/A Snow Light Snow
10:49 PM 23.0 °F 18.4 °F 21.2 °F 93% 29.85 in 7.0 mi North 3.5 mph - N/A Snow Light Snow
11:10 PM 23.0 °F 18.4 °F 19.4 °F 86% 29.84 in 7.0 mi NNE 3.5 mph - N/A Snow Light Snow
11:29 PM 23.0 °F 18.4 °F 19.4 °F 86% 29.84 in 10.0 mi NNE 3.5 mph - N/A Snow Light Snow
11:49 PM 23.0 °F 18.4 °F 19.4 °F 86% 29.83 in 10.0 mi NNE 3.5 mph - N/A Snow Light Snow